Regional Weather Roundup
Issued by NWS

Home | Current Version | Previous Version | Graphics & Text | Print | Product List | Glossary On
Versions: 1 2 3 4 5 6 7 8 9 10 11 12 13 14 15 16 17 18 19 20 21 22 23 24 25 26 27 28 29 30 31 32 33 34 35 36 37 38 39 40 41 42 43 44 45 46 47 48 49 50
000
ASUS44 KMEG 281010
RWRTN
TENNESSEE HOURLY STATE WEATHER ROUNDUP
NATIONAL WEATHER SERVICE MEMPHIS TN
500 AM CDT THU JUL 28 2016

TNZ002-004-019-021-049-052-054-088>092-281100-
WEST TENNESSEE

CITY           SKY/WX    TMP DP  RH WIND       PRES   REMARKS
MEMPHIS INTL   RAIN      75  73  93 SW7       29.91S FOG
NWS MEMPHIS      N/A     74 N/A N/A MISG        N/A
JACKSON        HVY RAIN  75  75 100 S5        29.90S FOG
DYERSBURG      CLOUDY    75  73  94 CALM      29.91R
UNION CITY     MOCLDY    75  73  94 CALM      29.89S
PARIS          CLOUDY    72  72 100 SE3       29.91S
LEXINGTON      CLOUDY    73  73 100 S7        29.91R
$$

TNZ008-025-027-028-033-062-065-066-281100-
NORTH MIDDLE TENNESSEE

CITY           SKY/WX    TMP DP  RH WIND       PRES   REMARKS
NASHVILLE      CLOUDY    76  73  91 CALM      29.93S
CLARKSVILLE    LGT RAIN  72  70  93 SE5       29.93R
SMYRNA         CLOUDY    78  73  84 S6        29.94S
COOKEVILLE     CLOUDY    75  72  88 S3        29.96S
CROSSVILLE     MOCLDY    73  69  87 CALM      30.03R
$$

TNZ061-075-076-078-094-096-097-281100-
SOUTH MIDDLE TENNESSEE

CITY           SKY/WX    TMP DP  RH WIND       PRES   REMARKS
FAYETTEVILLE   MOCLDY    75  73  94 S6        29.98R
TULLAHOMA      CLOUDY    75  72  88 S8        29.99R
WINCHESTER     PTCLDY    75  72  88 S3        29.98S
MCMINNVILLE    CLOUDY    77  73  88 SW3       29.97S
COLUMBIA       PTCLDY   N/A N/A N/A S3        29.92F
SHELBYVILLE    CLOUDY    77  75  94 S5        29.97R
$$

TNZ017-018-042-046-047-281100-
NORTHEAST TENNESSEE

CITY           SKY/WX    TMP DP  RH WIND       PRES   REMARKS
TRI CITIES     CLOUDY    70  68  93 CALM      30.01S
ELIZABETHTON   CLOUDY    70  70 100 CALM      30.02R
$$

TNZ012-013-036-069-073-074-281100-
CENTRAL EAST TENNESSEE

CITY           SKY/WX    TMP DP  RH WIND       PRES   REMARKS
KNOXVILLE      CLOUDY    76  69  79 SW7       29.98S
OAK RIDGE      CLOUDY    78  68  71 VRB3      30.00R
GATLINBURG     PTCLDY    77  66  69 SW7       29.98S
MORRISTOWN     CLOUDY    77  70  78 W7G14     29.99S
$$

TNZ083-085-099-281100-
SOUTHEAST TENNESSEE

CITY           SKY/WX    TMP DP  RH WIND       PRES   REMARKS
CHATTANOOGA    PTCLDY    76  69  79 S5        29.99S
$$

SKY/WX REPORTED AS FAIR MEANS FEW OR NO CLOUDS BELOW
12 THOUSAND FEET.





USA.gov is the U.S. government's official web portal to all federal, state and local government web resources and services.